EZY68GL EGGP-EGNS

Flight info

Callsign EZY68GL
Flight time 0h 16m
Altitude 14000
Route WAL M146 LUSOD DCT IOM
Aircraft A319/M-SDE3FGHIRWY/LB1

Departure

Time 2026-04-17 11:53
Airport Liverpool John Lennon Airport (EGGP)

Arrival

Time 2026-04-17 12:09
Airport Isle of Man Airport (EGNS)
Time Latitude Longitude Altitude Speed Heading
2026-04-17 11:52 53.40972 -3.16520 8030 ft 276 kts 306°
2026-04-17 11:53 53.42325 -3.18843 9055 ft 281 kts 306°
2026-04-17 11:53 53.43693 -3.21165 10086 ft 285 kts 305°
2026-04-17 11:53 53.45135 -3.23625 10647 ft 308 kts 306°
2026-04-17 11:53 53.46693 -3.26301 11141 ft 330 kts 306°
2026-04-17 11:54 53.48327 -3.29084 12038 ft 339 kts 307°
2026-04-17 11:54 53.49999 -3.31922 12960 ft 344 kts 307°
2026-04-17 11:54 53.51691 -3.34802 13715 ft 349 kts 307°
2026-04-17 11:54 53.53394 -3.37705 13943 ft 350 kts 307°
2026-04-17 11:55 53.55118 -3.40658 14010 ft 361 kts 307°
2026-04-17 11:55 53.56887 -3.43714 14013 ft 366 kts 307°
2026-04-17 11:55 53.58524 -3.46951 14012 ft 360 kts 298°
2026-04-17 11:55 53.59981 -3.50387 14009 ft 361 kts 298°
2026-04-17 11:56 53.61433 -3.53831 14007 ft 361 kts 297°
2026-04-17 11:56 53.62880 -3.57274 13997 ft 361 kts 297°
2026-04-17 11:56 53.64330 -3.60735 13998 ft 361 kts 297°
2026-04-17 11:56 53.65758 -3.64140 13995 ft 361 kts 297°
2026-04-17 11:57 53.67211 -3.67598 13991 ft 361 kts 297°
2026-04-17 11:57 53.68666 -3.71064 13992 ft 362 kts 297°
2026-04-17 11:57 53.70115 -3.74530 13997 ft 362 kts 297°
2026-04-17 11:57 53.71565 -3.78007 14000 ft 362 kts 297°
2026-04-17 11:58 53.73012 -3.81480 13999 ft 362 kts 297°
2026-04-17 11:58 53.74674 -3.84620 13879 ft 358 kts 310°
2026-04-17 11:58 53.76521 -3.87366 13528 ft 350 kts 310°
2026-04-17 11:58 53.78329 -3.90013 13389 ft 337 kts 310°
2026-04-17 11:59 53.80050 -3.92525 13260 ft 324 kts 310°
2026-04-17 11:59 53.81727 -3.94977 13127 ft 313 kts 310°
2026-04-17 11:59 53.83352 -3.97363 12895 ft 306 kts 309°
2026-04-17 11:59 53.84949 -3.99727 12552 ft 304 kts 309°
2026-04-17 12:00 53.86533 -4.02087 12194 ft 302 kts 309°
2026-04-17 12:00 53.88108 -4.04438 11828 ft 301 kts 309°
2026-04-17 12:00 53.89675 -4.06775 11465 ft 299 kts 309°
2026-04-17 12:00 53.91235 -4.09095 11102 ft 298 kts 309°
2026-04-17 12:01 53.92789 -4.11404 10743 ft 296 kts 309°
2026-04-17 12:01 53.94329 -4.13695 10317 ft 293 kts 309°
2026-04-17 12:01 53.95855 -4.15966 9711 ft 291 kts 309°
2026-04-17 12:01 53.97370 -4.18226 9068 ft 288 kts 310°
2026-04-17 12:02 53.98867 -4.20461 8460 ft 285 kts 310°
2026-04-17 12:02 54.00325 -4.22640 7862 ft 281 kts 311°
2026-04-17 12:02 54.01854 -4.24702 7235 ft 285 kts 323°
2026-04-17 12:02 54.03636 -4.26183 6652 ft 283 kts 329°
2026-04-17 12:03 54.05363 -4.27508 6526 ft 262 kts 329°
2026-04-17 12:03 54.06974 -4.28714 6366 ft 245 kts 329°
2026-04-17 12:03 54.08516 -4.29854 5970 ft 239 kts 329°
2026-04-17 12:03 54.10030 -4.30979 5531 ft 236 kts 329°
2026-04-17 12:04 54.11531 -4.32100 5090 ft 235 kts 329°
2026-04-17 12:04 54.12866 -4.33543 4648 ft 218 kts 299°
2026-04-17 12:04 54.13252 -4.35730 4471 ft 180 kts 254°
2026-04-17 12:04 54.12651 -4.37367 4233 ft 161 kts 221°
2026-04-17 12:05 54.11872 -4.38736 3830 ft 161 kts 230°
2026-04-17 12:05 54.11314 -4.40379 3457 ft 161 kts 242°
2026-04-17 12:05 54.10939 -4.42183 3156 ft 162 kts 248°
2026-04-17 12:05 54.10650 -4.44031 2858 ft 160 kts 250°
2026-04-17 12:06 54.10401 -4.45856 2475 ft 160 kts 251°
2026-04-17 12:06 54.10162 -4.47706 2056 ft 159 kts 251°
2026-04-17 12:06 54.09929 -4.49552 2013 ft 161 kts 251°
2026-04-17 12:06 54.09709 -4.51352 1883 ft 145 kts 251°
2026-04-17 12:07 54.09519 -4.52992 1389 ft 138 kts 250°
2026-04-17 12:07 54.09327 -4.54555 1006 ft 129 kts 249°
2026-04-17 12:07 54.09140 -4.55973 722 ft 119 kts 249°
2026-04-17 12:07 54.08960 -4.57333 527 ft 117 kts 249°
2026-04-17 12:08 54.08795 -4.58688 363 ft 117 kts 251°
2026-04-17 12:08 54.08625 -4.60025 213 ft 115 kts 251°
2026-04-17 12:08 54.08465 -4.61332 78 ft 113 kts 248°
2026-04-17 12:08 54.08301 -4.62584 39 ft 95 kts 258°
2026-04-17 12:09 54.08225 -4.63197 35 ft 20 kts 259°
2026-04-17 12:09 54.08269 -4.63332 35 ft 13 kts 344°
2026-04-17 12:09 54.08318 -4.63350 36 ft 6 kts 348°
2026-04-17 12:09 54.08355 -4.63363 36 ft 6 kts 348°
2026-04-17 12:10 54.08402 -4.63381 36 ft 8 kts 345°
2026-04-17 12:10 54.08458 -4.63384 36 ft 9 kts 19°
2026-04-17 12:10 54.08493 -4.63351 36 ft 5 kts 31°
2026-04-17 12:10 54.08501 -4.63343 35 ft 1 kts 25°
2026-04-17 12:11 54.08513 -4.63349 35 ft 2 kts 323°
2026-04-17 12:11 54.08526 -4.63373 33 ft 3 kts 315°
2026-04-17 12:11 54.08545 -4.63383 36 ft 3 kts
2026-04-17 12:12 54.08581 -4.63335 36 ft 2 kts 45°
2026-04-17 12:12 54.08586 -4.63326 36 ft 0 kts 45°
2026-04-17 12:12 54.08587 -4.63325 36 ft 1 kts 44°